Terug naar catalogus

KUIPER-00156

ActiefCommunicatieLEO
NORAD 65775·PAYLOAD·🇺🇸 United States

Gelanceerd Sep 25, 2025 vanaf Cape Canaveral Space Force Station

Loading…

Volgende Passages (komende 24 uur)

TLE

VersSource: CelesTrak SupGP

Epoch: Sep 15, 2026, 03:18 UTC

1 65775C 25217P   26258.13780093 -.00001985  00000+0 -25994-3 0  2585
2 65775  51.9013 267.9351 0000562  70.5593 186.5842 14.79923102    19

Volg KUIPER-00156 in realtime met AllMySat

Download on the App Store